Location: Newark
(53.3333°N, 83.7500°E)
Time: 23:13:24
(UTC+00:00)

N. Korean satellite - Visible Passes

Search period start: 23 September 2020 00:00
Search period end: 03 October 2020 00:00
Orbit: 455 x 503 km, 97.2° (Epoch: 23 September)

Date Brightness Start Highest point End Pass type
(mag) Time Alt. Az. Time Alt. Az. Time Alt. Az.
23 Sep 9.0 23:28:21 10° NNE 23:31:36 28° E 23:34:47 10° SSE visible
24 Sep 9.8 23:03:00 10° NE 23:05:22 16° E 23:07:42 10° SE visible
26 Sep 8.2 23:43:29 10° NNE 23:46:59 41° E 23:50:24 10° S visible
27 Sep 9.5 23:17:51 10° NE 23:20:48 22° E 23:23:41 10° SE visible
28 Sep 10.1 22:52:50 10° ENE 22:54:30 13° E 22:56:10 10° ESE visible
30 Sep 8.7 23:32:52 10° NNE 23:36:10 31° E 23:39:23 10° SSE visible
01 Oct 9.8 23:07:24 10° NE 23:09:55 18° E 23:12:24 10° SE visible
